Weather History for Big Delta, AK

Change the Weather History Date:

Thursday, March 14, 2013

  Actual Average Record
Temperature  
Mean Temperature 2 °F -  
Max Temperature 10 °F 22 °F 37 °F (2014)
Min Temperature -7 °F 2 °F -26 °F (2003)
Degree Days  
Heating Degree Days 64    
Moisture  
Dew Point -13 °F    
Average Humidity 46    
Maximum Humidity 62    
Minimum Humidity 24    
Precipitation  
Precipitation 0.00 in - - ()
Sea Level Pressure  
Sea Level Pressure 30.23 in    
Wind  
Wind Speed 23 mph (East)    
Max Wind Speed 38 mph    
Max Gust Speed 51 mph    
Visibility 10 miles    
Events      
Averages and records for this station are not official NWS values.
T = Trace of Precipitation, MM = Missing Value Source: NWS Daily Summary

Daily Weather History Graph

Daily Weather History Graph

Search for Another Location

Airport:

Trip Planner

Search our weather history database for the weather conditions in past years. The results will help you decide how hot, cold, wet, or windy it might be!

Date:

Astronomy

Mar. 14, 2013 Rise Set
Actual Time 8:03 AM AKDT 7:42 PM AKDT
Civil Twilight 7:16 AM AKDT 8:29 PM AKDT
Nautical Twilight 6:19 AM AKDT 9:26 PM AKDT
Astronomical Twilight 5:18 AM AKDT 10:28 PM AKDT
Moon 8:08 AM AKDT (3/14) No Moon Set
Length of Visible Light 13h 13m
Length of Day
11h 39m
Waxing Crescent, 10% of the Moon is Illuminated
Mar 14
Waxing Crescent
Mar 19
First Quarter
Mar 27
Full
Apr 2
Last Quarter
Apr 10
New

Hourly Weather History & Observations

Time (AKDT) Temp. Windchill Dew Point Humidity Pressure Visibility Wind Dir Wind Speed Gust Speed Precip Events Conditions
12:53 AM -2.0 °F -23.3 °F -17.0 °F 49% 30.26 in 10.0 mi East 17.3 mph - N/A   Clear
1:53 AM -5.1 °F -23.5 °F -17.0 °F 57% 30.25 in 10.0 mi East 11.5 mph - N/A   Clear
2:53 AM -5.1 °F -24.3 °F -15.0 °F 62% 30.24 in 10.0 mi East 12.7 mph - N/A   Clear
3:53 AM -5.1 °F -23.5 °F -15.0 °F 62% 30.22 in 10.0 mi East 11.5 mph - N/A   Clear
4:53 AM -2.9 °F -27.2 °F -14.1 °F 59% 30.20 in 10.0 mi East 23.0 mph 32.2 mph N/A   Clear
5:53 AM -2.9 °F -28.6 °F -14.1 °F 59% 30.20 in 9.0 mi East 26.5 mph 34.5 mph N/A   Clear
6:53 AM -2.9 °F -27.6 °F -15.0 °F 56% 30.21 in 10.0 mi East 24.2 mph 32.2 mph N/A   Clear
7:53 AM -2.0 °F -28.6 °F -14.1 °F 57% 30.20 in 10.0 mi East 29.9 mph 44.9 mph 0.00 in   Mostly Cloudy
8:53 AM -0.9 °F -27.8 °F -15.0 °F 52% 30.22 in 10.0 mi ESE 32.2 mph 43.7 mph 0.00 in   Scattered Clouds
9:53 AM -0.0 °F -28.0 °F -15.0 °F 49% 30.22 in 10.0 mi East 36.8 mph 47.2 mph N/A   Scattered Clouds
10:53 AM 1.9 °F -24.3 °F -13.0 °F 50% 30.22 in 10.0 mi ESE 33.4 mph 50.6 mph N/A   Scattered Clouds
11:53 AM 3.9 °F -21.9 °F -13.0 °F 46% 30.24 in 10.0 mi East 34.5 mph 50.6 mph N/A   Scattered Clouds
12:53 PM 6.1 °F -18.9 °F -11.9 °F 44% 30.24 in 10.0 mi East 34.5 mph 49.5 mph N/A   Scattered Clouds
1:53 PM 8.1 °F -17.0 °F -11.9 °F 40% 30.25 in 10.0 mi East 38.0 mph 48.3 mph N/A   Scattered Clouds
2:53 PM 9.0 °F -13.0 °F -11.0 °F 40% 30.26 in 10.0 mi East 27.6 mph 40.3 mph N/A   Scattered Clouds
3:53 PM 10.0 °F -13.7 °F -9.9 °F 40% 30.25 in 10.0 mi East 35.7 mph 43.7 mph N/A   Scattered Clouds
4:53 PM 10.9 °F -12.5 °F -9.9 °F 39% 30.24 in 10.0 mi East 35.7 mph 44.9 mph N/A   Scattered Clouds
5:53 PM 10.9 °F -10.6 °F -9.0 °F 40% 30.25 in 10.0 mi East 28.8 mph 36.8 mph N/A   Scattered Clouds
6:53 PM 10.9 °F -9.6 °F -9.9 °F 39% 30.24 in 10.0 mi East 25.3 mph 35.7 mph N/A   Scattered Clouds
7:53 PM 10.0 °F -9.1 °F -9.0 °F 42% 30.23 in 10.0 mi East 20.7 mph 31.1 mph N/A   Scattered Clouds
8:53 PM 9.0 °F -11.4 °F -9.9 °F 42% 30.24 in 10.0 mi East 23.0 mph 29.9 mph N/A   Scattered Clouds
9:53 PM 8.1 °F -12.2 °F -11.0 °F 42% 30.23 in 10.0 mi East 21.9 mph 32.2 mph N/A   Clear
10:53 PM 7.0 °F -13.6 °F -11.0 °F 44% 30.23 in 10.0 mi East 21.9 mph 32.2 mph N/A   Clear
11:53 PM 6.1 °F -14.8 °F -11.9 °F 44% 30.23 in 10.0 mi East 21.9 mph 28.8 mph N/A   Clear